Location: Shepherdstown, WV
(39.4326°N, 77.8042°W)
Time: 06:34:34
(UTC-04:00)

SR - Pass Details

Date: 02 August 2021
Orbit: 581 x 874 km, 66.7° (Epoch: 24 September)

Event Time Altitude Azimuth Distance (km) Brightness Sun altitude
Rises 08:59:03 0° 272° (W) 3,412 ? 30.5°
Reaches altitude 10° 09:04:30 10° 315° (NW) 2,413 ? 31.6°
Maximum altitude 09:05:10 10° 322° (NW) 2,390 ? 31.7°
Drops below altitude 10° 09:05:50 10° 329° (NNW) 2,394 ? 31.8°
Sets 09:11:03 0° 12° (NNE) 3,234 ? 32.8°
